User: anonymous   Login
Location: Scultetus-Sternwarte G�rlitz
(51.1356°N, 14.9514°E)
Time: 13:13:28
(UTC+01:00)
Language:

Iridium 3 - Orbit

View from above orbital plane
View from above orbital plane
View from above satellite
View from above satellite

Ground track
Ground track

The orbit data is extracted from the following two-line orbital elements,

1 25431U 98048A   14302.09018564  .00000361  00000-0  12174-3 0  9423
2 25431 086.3931 297.8310 0002052 106.4173 318.9602 14.34221032847716
Epoch (UTC): 29 October 2014 02:09:52
Eccentricity: 0.0002052
inclination: 86.3931°
perigee height: 776 km
apogee height: 779 km
right ascension of ascending node: 297.8310°
argument of perigee: 106.4173°
revolutions per day: 14.34221032
mean anomaly at epoch: 318.9602°
orbit number at epoch: 84771

The dashed part of the orbit path shows where the satellite is in the earth's shadow,  

DLR